Terminal Aerodrome Forecast
Issued by NWS

Home | Current Version | Previous Version | Text Only | Print | Product List | Glossary On
Versions: 1 2 3 4 5 6 7 8 9 10 11 12
000
FTUS46 KMTR 192324
TAFOAK
TAF
KOAK 192324Z 2000/2106 27014KT P6SM FEW015
     FM200400 28008KT P6SM FEW020
     FM200900 VRB03KT P6SM SCT018
     FM201700 24005KT P6SM FEW014
     FM202000 28011KT P6SM FEW014=

USA.gov is the U.S. government's official web portal to all federal, state and local government web resources and services.